Location: ????????
(56.0167°N, 38.0333°E)
Time: 14:34:51
(UTC+00:00)

SL-16 R/B - Pass Details

Date: 19 May 2025
Orbit: 841 x 844 km, 71.0° (Epoch: 19 June)

Event Time Altitude Azimuth Distance (km) Brightness Sun altitude
Rises 20:57:59 0° 324° (NW) 3,416 6.5 -13.8°
Reaches altitude 10° 21:00:31 10° 318° (NW) 2,477 5.5 -13.8°
Maximum altitude 21:05:54 46° 247° (WSW) 1,130 2.7 -13.9°
Enters shadow 21:09:29 20° 184° (S) 1,853 3.3 -14.0°
